Benton Harbor, MI

4:32 PM EDT on May 25, 2017 (GMT -0400)
Southwest Michigan Regional

Weather History for KBEH - January, 2013

Change the Weather History Date:

Tuesday, January 29, 2013

  Actual Average Record
Temperature  
Mean Temperature 48 °F -  
Max Temperature 60 °F 31 °F 60 °F (2013)
Min Temperature 37 °F 17 °F -8 °F (1955)
Degree Days  
Heating Degree Days 16    
Moisture  
Dew Point 51 °F    
Average Humidity 95    
Maximum Humidity 100    
Minimum Humidity 82    
Precipitation  
Precipitation 0.46 in - - ()
Sea Level Pressure  
Sea Level Pressure 29.63 in    
Wind  
Wind Speed 11 mph (South)    
Max Wind Speed 18 mph    
Max Gust Speed 33 mph    
Visibility 4 miles    
Events Fog , Rain , Thunderstorm    
Averages and records for this station are not official NWS values.
T = Trace of Precipitation, MM = Missing Value Source: NWS Daily Summary

Daily Weather History Graph

Daily Weather History Graph

Search for Another Location

Airport or City:

Trip Planner

Search our weather history database for the weather conditions in past years. The results will help you decide how hot, cold, wet, or windy it might be!

Date:

Astronomy

Jan. 29, 2013 Rise Set
Actual Time 8:01 AM EST 5:56 PM EST
Civil Twilight 7:31 AM EST 6:26 PM EST
Nautical Twilight 6:57 AM EST 7:00 PM EST
Astronomical Twilight 6:25 AM EST 7:33 PM EST
Moon 8:56 PM EST (1/29) 8:54 AM EST (1/29)
Length of Visible Light 10h 55m
Length of Day
9h 55m
Waning Gibbous, 94% of the Moon is Illuminated
Jan 29
Waning Gibbous
Feb 3
Last Quarter
Feb 10
New
Feb 17
First Quarter
Feb 25
Full

Hourly Weather History & Observations

Time (EST) Temp. Windchill Dew Point Humidity Pressure Visibility Wind Dir Wind Speed Gust Speed Precip Events Conditions
12:20 AM 37.4 °F 31.4 °F 35.6 °F 93% 29.92 in 1.2 mi East 8.1 mph - N/A   Overcast
12:37 AM 37.4 °F 30.8 °F 35.6 °F 93% 29.91 in 0.8 mi ESE 9.2 mph - N/A   Overcast
12:53 AM 37.0 °F 29.3 °F 37.0 °F 100% 29.91 in 1.0 mi ESE 11.5 mph - N/A   Mist
1:18 AM 37.4 °F 30.8 °F 37.4 °F 100% 29.88 in 1.5 mi SE 9.2 mph - N/A   Overcast
1:53 AM 41.0 °F 33.1 °F 39.9 °F 96% 29.86 in 2.5 mi SE 15.0 mph - 0.06 in Rain Rain
1:59 AM 41.0 °F 33.5 °F 39.2 °F 93% 29.83 in 4.0 mi SE 13.8 mph - 0.01 in Rain Light Rain
2:07 AM 42.8 °F 36.2 °F 41.0 °F 93% 29.84 in 5.0 mi SE 12.7 mph - 0.01 in Thunderstorm Overcast
2:22 AM 42.8 °F 37.5 °F 42.8 °F 100% 29.83 in 4.0 mi SSE 9.2 mph 20.7 mph 0.03 in Rain Rain
2:37 AM 42.8 °F 37.5 °F 42.8 °F 100% 29.82 in 5.0 mi SSE 9.2 mph - 0.04 in Rain , Thunderstorm Thunderstorms and Rain
2:53 AM 43.0 °F 38.8 °F 43.0 °F 100% 29.82 in 4.0 mi ESE 6.9 mph - 0.05 in Thunderstorm Overcast
3:11 AM 44.6 °F 39.2 °F 44.6 °F 100% 29.79 in 2.5 mi SE 10.4 mph 20.7 mph 0.00 in   Overcast
3:31 AM 46.4 °F 40.7 °F 46.4 °F 100% 29.78 in 1.8 mi SSE 12.7 mph 18.4 mph 0.00 in   Overcast
3:53 AM 46.9 °F - 46.9 °F 100% 29.78 in 1.2 mi SSE 10.4 mph - 0.00 in   Overcast
4:53 AM 52.0 °F - 52.0 °F 100% 29.74 in 1.0 mi South 12.7 mph 21.9 mph N/A   Overcast
5:35 AM 53.6 °F - 53.6 °F 100% 29.73 in 1.8 mi SSW 11.5 mph 19.6 mph 0.00 in Rain Light Rain
5:43 AM 53.6 °F - 53.6 °F 100% 29.72 in 2.5 mi South 12.7 mph - 0.01 in Rain Light Rain
5:50 AM 53.6 °F - 53.6 °F 100% 29.72 in 3.0 mi SSW 10.4 mph 19.6 mph 0.01 in Rain Light Rain
5:51 AM 54.0 °F - 54.0 °F 100% 29.73 in 3.0 mi South 10.4 mph 19.6 mph 0.01 in Rain Light Rain
7:53 AM 57.0 °F - 55.0 °F 93% 29.73 in 5.0 mi SSW 11.5 mph - N/A   Overcast
8:53 AM 57.0 °F - 55.0 °F 93% 29.71 in 3.0 mi South 15.0 mph 23.0 mph N/A   Overcast
9:46 AM 57.2 °F - 55.4 °F 94% 29.72 in 4.0 mi South 12.7 mph - N/A   Overcast
9:53 AM 57.0 °F - 55.0 °F 93% 29.72 in 4.0 mi South 12.7 mph - N/A   Overcast
10:53 AM 57.0 °F - 55.0 °F 93% 29.72 in 5.0 mi South 11.5 mph - 0.00 in   Overcast
11:53 AM 57.0 °F - 55.0 °F 93% 29.71 in 7.0 mi South 11.5 mph 21.9 mph 0.01 in   Overcast
12:24 PM 57.2 °F - 55.4 °F 94% 29.69 in 5.0 mi South 15.0 mph 20.7 mph N/A   Overcast
1:29 PM 57.2 °F - 55.4 °F 94% 29.64 in 4.0 mi SSW 13.8 mph 24.2 mph N/A   Overcast
1:53 PM 57.9 °F - 55.9 °F 93% 29.64 in 5.0 mi South 16.1 mph 23.0 mph N/A   Overcast
2:10 PM 57.2 °F - 55.4 °F 94% 29.62 in 7.0 mi South 10.4 mph 23.0 mph N/A   Overcast
2:53 PM 57.9 °F - 55.9 °F 93% 29.61 in 5.0 mi South 10.4 mph - 0.00 in Rain Light Rain
3:53 PM 59.0 °F - 55.9 °F 90% 29.59 in 3.0 mi South 11.5 mph 21.9 mph 0.00 in   Overcast
4:36 PM 59.0 °F - 55.4 °F 88% 29.58 in 5.0 mi South 13.8 mph - 0.00 in Rain Light Rain
4:53 PM 59.0 °F - 55.9 °F 90% 29.57 in 5.0 mi South 16.1 mph 24.2 mph 0.00 in   Overcast
5:43 PM 57.2 °F - 55.4 °F 94% 29.56 in 4.0 mi South 10.4 mph 25.3 mph N/A   Overcast
5:53 PM 59.0 °F - 55.9 °F 90% 29.54 in 6.0 mi South 13.8 mph 26.5 mph N/A   Overcast
6:21 PM 59.0 °F - 55.4 °F 88% 29.53 in 6.0 mi South 15.0 mph 23.0 mph N/A   Overcast
6:53 PM 59.0 °F - 55.0 °F 87% 29.52 in 7.0 mi South 13.8 mph 25.3 mph N/A   Overcast
7:39 PM 59.0 °F - 55.4 °F 88% 29.49 in 8.0 mi South 16.1 mph 26.5 mph N/A   Overcast
7:53 PM 59.0 °F - 55.0 °F 87% 29.48 in 5.0 mi South 16.1 mph 25.3 mph 0.02 in Rain Light Rain
8:39 PM 59.0 °F - 55.4 °F 88% 29.43 in 3.0 mi South 17.3 mph 33.4 mph 0.04 in Rain , Thunderstorm Thunderstorms and Rain
8:53 PM 59.0 °F - 55.0 °F 87% 29.43 in 9.0 mi South 17.3 mph 28.8 mph 0.04 in Rain , Thunderstorm Light Rain
9:05 PM 60.8 °F - 55.4 °F 82% 29.44 in 8.0 mi South 18.4 mph 26.5 mph 0.00 in Rain Light Rain
9:24 PM 55.4 °F - 53.6 °F 94% 29.47 in 3.0 mi WSW 16.1 mph 28.8 mph 0.08 in Rain Rain
9:33 PM 53.6 °F - 51.8 °F 94% 29.46 in 2.0 mi West 12.7 mph 24.2 mph 0.14 in Rain Heavy Rain
9:42 PM 53.6 °F - 51.8 °F 94% 29.46 in 3.0 mi WSW 8.1 mph - 0.15 in Rain Light Rain
9:53 PM 53.1 °F - 51.1 °F 93% 29.46 in 2.0 mi West 9.2 mph - 0.19 in Rain Rain
10:01 PM 51.8 °F - 51.8 °F 100% 29.45 in 2.5 mi West 4.6 mph - 0.01 in Rain Light Rain
10:37 PM 51.8 °F - 51.8 °F 100% 29.44 in 2.0 mi WSW 6.9 mph - 0.05 in Rain Rain
10:51 PM 51.8 °F - 51.8 °F 100% 29.42 in 2.5 mi SW 4.6 mph - 0.05 in Rain Light Rain
10:53 PM 51.1 °F - 51.1 °F 100% 29.43 in 4.0 mi SW 3.5 mph - 0.05 in Rain Light Rain
11:04 PM 51.8 °F - 51.8 °F 100% 29.42 in 1.5 mi WNW 3.5 mph - 0.01 in Rain Light Rain
11:10 PM 51.8 °F - 51.8 °F 100% 29.42 in 1.2 mi West 3.5 mph - 0.01 in Rain Light Rain
11:24 PM 51.8 °F - 51.8 °F 100% 29.41 in 0.5 mi Calm Calm - 0.01 in Fog Fog
11:32 PM 51.8 °F - 51.8 °F 100% 29.42 in 0.5 mi Calm Calm - 0.02 in Fog , Rain Light Rain
11:53 PM 51.1 °F - 51.1 °F 100% 29.40 in 0.5 mi Calm Calm - 0.03 in Fog , Rain Light Rain